"Pseudo-MPEC" for 2GO1A21

Created 2022 Aug 14 9:22:02 UT using Find_Orb

Click here for an explanation of pseudo-MPECs

 
 Astrometry: 
     2GO1A21*KC2022 07 254LUXV]LD3=n0(a\d$n[pO??MQL@,'\d]RAstrometryG0P4'DDyLW94
     2GO1A21 KC2022 07 25,bJW+P,$pYVP_v\f2G$eHh;]I:'I@g%)7+`v6FU,Ye6;r^MslB*.W94
     2GO1A21 KC2022 07 25Y.`WB(\%?AepWeK=DjS+redacted;!XS=%O3.diIA1QW7JxV@0BEW94
     2GO1A21 KC2022 07 25M@5[]ta8Sn/XDeE,O4Upy,MjWGQ6CQc=fD;_8nTRg%^=m:3F;71AW95
     2GO1A21 KC2022 07 25^c1[nNx4sSO2Ew@G#L5\1R)%?PclickY4Ak/Y.@:ol6BEfhere.kW95
     2GO1A21 KC2022 07 25cO8AUMW@Y;ESkYgfJwE2qfor_4fQ$bwDqB.Z)Ub:vuUuN.pfXm1DW95
     2GO1A21 KC2022 07 25p2+7GS[ruCr/(qAXGP-uQk=N8OsWy+Uvc.26]/bm6j1ead;8`0.yW95
     2GO1A21 KC2022 07 259[08ALH=iV)%n9haO2Y`iE!S::3$AS=Wc/xiW;Yhy8\8ZCgmV'6!W95
     2GO1A21 KC2022 07 25\ioPpTwIqTgexplanation'RV^H5LG(b_b_/aEqChgtD](B`PM[]W95

Station data:
(W94) AMACS1, San Pedro de Atacama  (S22.953074 W68.179810)  Chile.  Observers
   A. Maury, G. Attard. Measurers A. Maury, G. Attard, D. Parrott. 0.28-m
   f/2.2 Schmidt + CCD.
(W95) Observatorio Panameno, San Pedro de Atacama  (S22.953179 W68.179880)
   Chile.  Observers A. Maury, G. Attard, J. Fabrega. Measurers A. Maury, G.
   Attard, D. Parrott. 0.40-m f/3.8 reflector + CCD.

Orbital elements:  2GO1A21
   Perihelion 2022 Oct 27.58769 +/- 1.06 TT = 14:06:16 (JD 2459880.08769)
Epoch 2022 Jul 25.0 TT = JDT 2459785.5   Earth MOID: 0.0186   Ve: 0.0095
M 209.04284067 +/- 1.5              Me: 0.0570                AutoNEOCP
n   1.59594938 +/- 0.0233           Peri.  358.65186 +/- 0.23
a   0.72519807 +/- 0.00707          Node   111.57229 +/- 0.6
e   0.4932518 +/- 0.0152            Incl.    3.07990 +/- 0.28
P   0.62/225.57d           H 25.3   G  0.15   U 10.2
q 0.36749276 +/- 0.0146    Q 1.08290337 +/- 0.00202       (J2000 ecliptic)
From 9 observations 2022 July 25 (5.4 hr); mean residual 0".41
Residuals in arcseconds: 
220725 W94  .24+  .20+    220725 W95  .16-  .11+    220725 W95  .68-  .38+    
220725 W94  .30-  .57-    220725 W95  .29-  .18-    220725 W95  .02-  .86-    
220725 W94  .02+  .35+    220725 W95  .59+  .12+    220725 W95  .61+  .45+    

Ephemerides (geocentric):
Date (UTC) HH   RA             Dec           delta  r     elong  mag " sig PA
---- --------  ------------   ------------  ------ ------ -----  --- --------
2022 08 14 09  13 50 45.925   -24 31 30.61  .10234 .98898  73.6 24.0 4747 119
2022 08 14 10  13 50 33.809   -24 29 45.68  .10253 .98878  73.5 24.0 4750 119
2022 08 14 11  13 50 21.738   -24 28 01.05  .10272 .98857  73.4 24.0 4753 119
2022 08 14 12  13 50 09.712   -24 26 16.71  .10291 .98836  73.3 24.1 4755 119
2022 08 14 13  13 49 57.730   -24 24 32.67  .10310 .98816  73.2 24.1 4758 119
2022 08 14 14  13 49 45.792   -24 22 48.91  .10329 .98795  73.1 24.1 4760 120
2022 08 14 15  13 49 33.899   -24 21 05.44  .10348 .98774  73.0 24.1 4763 120
2022 08 14 16  13 49 22.049   -24 19 22.25  .10367 .98754  73.0 24.1 4765 120
2022 08 14 17  13 49 10.243   -24 17 39.36  .10386 .98733  72.9 24.1 4768 120
2022 08 14 18  13 48 58.480   -24 15 56.74  .10405 .98712  72.8 24.1 4771 120
2022 08 14 19  13 48 46.760   -24 14 14.41  .10424 .98691  72.7 24.1 4773 120
2022 08 14 20  13 48 35.082   -24 12 32.36  .10443 .98671  72.6 24.1 4776 120
2022 08 14 21  13 48 23.446   -24 10 50.59  .10462 .98650  72.5 24.1 4778 120
2022 08 14 22  13 48 11.853   -24 09 09.09  .10481 .98629  72.4 24.1 4781 120
2022 08 14 23  13 48 00.301   -24 07 27.88  .10500 .98608  72.3 24.1 4783 120
2022 08 15 00  13 47 48.790   -24 05 46.94  .10519 .98587  72.2 24.1 4786 120
2022 08 15 01  13 47 37.321   -24 04 06.27  .10538 .98566  72.1 24.2 4788 120
2022 08 15 02  13 47 25.892   -24 02 25.88  .10557 .98545  72.0 24.2 4791 120
2022 08 15 03  13 47 14.505   -24 00 45.76  .10576 .98524  72.0 24.2 4793 120
2022 08 15 04  13 47 03.157   -23 59 05.91  .10595 .98503  71.9 24.2 4795 120
2022 08 15 05  13 46 51.850   -23 57 26.33  .10614 .98482  71.8 24.2 4798 120
2022 08 15 06  13 46 40.582   -23 55 47.02  .10633 .98461  71.7 24.2 4800 120
2022 08 15 07  13 46 29.354   -23 54 07.97  .10652 .98440  71.6 24.2 4803 120
2022 08 15 08  13 46 18.165   -23 52 29.19  .10671 .98419  71.5 24.2 4805 120
2022 08 15 09  13 46 07.015   -23 50 50.67  .10690 .98398  71.4 24.2 4807 120
2022 08 15 10  13 45 55.904   -23 49 12.42  .10709 .98377  71.3 24.2 4810 120
2022 08 15 11  13 45 44.831   -23 47 34.42  .10728 .98356  71.2 24.2 4812 120
2022 08 15 12  13 45 33.797   -23 45 56.69  .10747 .98334  71.1 24.2 4815 120
2022 08 15 13  13 45 22.800   -23 44 19.21  .10766 .98313  71.1 24.2 4817 120
2022 08 15 14  13 45 11.842   -23 42 42.00  .10785 .98292  71.0 24.3 4819 120
2022 08 15 15  13 45 00.921   -23 41 05.04  .10804 .98271  70.9 24.3 4822 120
2022 08 15 16  13 44 50.037   -23 39 28.33  .10823 .98249  70.8 24.3 4824 120
2022 08 15 17  13 44 39.190   -23 37 51.88  .10842 .98228  70.7 24.3 4826 120
2022 08 15 18  13 44 28.380   -23 36 15.68  .10861 .98207  70.6 24.3 4829 120
2022 08 15 19  13 44 17.606   -23 34 39.73  .10881 .98186  70.5 24.3 4831 120
2022 08 15 20  13 44 06.869   -23 33 04.03  .10900 .98164  70.4 24.3 4833 120
2022 08 15 21  13 43 56.167   -23 31 28.59  .10919 .98143  70.4 24.3 4835 120
2022 08 15 22  13 43 45.502   -23 29 53.38  .10938 .98121  70.3 24.3 4838 120
2022 08 15 23  13 43 34.872   -23 28 18.43  .10957 .98100  70.2 24.3 4840 120
2022 08 16 00  13 43 24.277   -23 26 43.72  .10976 .98078  70.1 24.3 4842 120
2022 08 16 01  13 43 13.718   -23 25 09.25  .10995 .98057  70.0 24.3 4845 120
2022 08 16 02  13 43 03.193   -23 23 35.03  .11014 .98035  69.9 24.3 4847 120
2022 08 16 03  13 42 52.703   -23 22 01.05  .11033 .98014  69.8 24.3 4849 120
2022 08 16 04  13 42 42.248   -23 20 27.31  .11052 .97992  69.7 24.4 4851 120
2022 08 16 05  13 42 31.826   -23 18 53.80  .11072 .97971  69.7 24.4 4853 120
2022 08 16 06  13 42 21.439   -23 17 20.54  .11091 .97949  69.6 24.4 4856 120
2022 08 16 07  13 42 11.086   -23 15 47.51  .11110 .97927  69.5 24.4 4858 120
2022 08 16 08  13 42 00.765   -23 14 14.72  .11129 .97906  69.4 24.4 4860 120